FW8253 Weather Reports


time (UTC)temp
C
wind
direction
speed
KPH
gust
KPH
rain 1hr
cm
rain 24hr
cm
rain mn
cm
humidity
%
barometer
mb
20260906193256 36 130 0.0 0.0 0.00 0.00 0.00 50 1010.2
20260906192752 36 91 0.0 0.0 0.00 0.00 0.00 50 1010.3
20260906192252 37 270 0.0 0.0 0.00 0.00 0.00 49 1010.2
20260906191750 37 265 0.0 0.0 0.00 0.00 0.00 49 1010.6
20260906191246 37 310 0.0 0.0 0.00 0.00 0.00 49 1010.7
20260906190740 36 225 0.0 0.0 0.00 0.00 0.00 51 1011.0
20260906190234 36 234 0.0 0.0 0.00 0.00 0.00 51 1011.0
20260906185733 36 228 0.0 0.0 0.00 0.00 0.00 52 1010.9
20260906185232 36 239 0.0 0.0 0.00 0.00 0.00 53 1010.9
20260906184727 36 271 0.0 0.0 0.00 0.00 0.00 54 1011.0
20260906184222 36 224 0.0 0.0 0.00 0.00 0.00 52 1011.1
20260906183719 35 230 0.0 0.0 0.00 0.00 0.00 56 1011.0
20260906183215 35 220 0.0 0.0 0.00 0.00 0.00 57 1011.1
20260906182714 35 251 0.0 0.0 0.00 0.00 0.00 56 1011.2
20260906182210 35 239 0.0 0.0 0.00 0.00 0.00 56 1011.4
20260906181705 36 237 0.0 0.0 0.00 0.00 0.00 52 1011.2
20260906181202 36 168 0.0 0.0 0.00 0.00 0.00 51 1011.6
20260906180656 37 164 0.0 0.0 0.00 0.00 0.00 49 1011.5
20260906180151 37 111 0.0 0.0 0.00 0.00 0.00 50 1011.7
20260906175649 35 223 0.0 0.0 0.00 0.00 0.00 53 1011.7
20260906175144 35 229 0.0 0.0 0.00 0.00 0.00 54 1011.9
20260906174642 36 147 0.0 0.0 0.00 0.00 0.00 52 1011.7
20260906174137 37 276 0.0 0.0 0.00 0.00 0.00 50 1011.7
20260906173632 37 300 0.0 0.0 0.00 0.00 0.00 48 1012.0
20260906173128 37 215 0.0 0.0 0.00 0.00 0.00 51 1011.9
20260906172627 37 168 0.0 0.0 0.00 0.00 0.00 51 1012.1
20260906172123 37 190 0.0 0.0 0.00 0.00 0.00 50 1012.1
20260906171622 37 16 0.0 0.0 0.00 0.00 0.00 50 1012.2
20260906171118 37 205 0.0 0.0 0.00 0.00 0.00 50 1012.2
20260906170615 36 252 0.0 0.0 0.00 0.00 0.00 52 1012.1
20260906170113 36 248 0.0 0.0 0.00 0.00 0.00 52 1012.1
20260906165610 35 213 0.0 0.0 0.00 0.00 0.00 55 1012.3
20260906165105 35 87 0.0 0.0 0.00 0.00 0.00 54 1012.4
20260906164604 34 247 0.0 0.0 0.00 0.00 0.00 56 1012.4
20260906164100 35 181 0.0 0.0 0.00 0.00 0.00 55 1012.6
20260906163555 35 133 0.0 0.0 0.00 0.00 0.00 54 1012.7
20260906163051 36 281 0.0 0.0 0.00 0.00 0.00 54 1012.6
20260906162548 36 159 0.0 0.0 0.00 0.00 0.00 52 1013.0
20260906162043 36 243 0.0 0.0 0.00 0.00 0.00 52 1012.9
20260906161538 36 42 0.0 0.0 0.00 0.00 0.00 53 1012.6
20260906161037 35 63 0.0 0.0 0.00 0.00 0.00 53 1012.8
20260906160536 34 67 0.0 0.0 0.00 0.00 0.00 56 1012.9
20260906160035 33 170 0.0 0.0 0.00 0.00 0.00 59 1012.9
20260906155532 34 232 0.0 0.0 0.00 0.00 0.00 58 1013.0
20260906155029 35 8 0.0 0.0 0.00 0.00 0.00 55 1013.2
20260906154523 35 251 0.0 0.0 0.00 0.00 0.00 57 1013.0
20260906154022 35 182 0.0 0.0 0.00 0.00 0.00 57 1013.2
20260906153521 35 189 0.0 0.0 0.00 0.00 0.00 56 1012.9
20260906153011 35 173 0.0 0.0 0.00 0.00 0.00 55 1013.1
20260906152505 34 221 0.0 0.0 0.00 0.00 0.00 57 1013.2
20260906152004 34 215 0.0 0.0 0.00 0.00 0.00 57 1013.2
20260906151500 33 226 0.0 0.0 0.00 0.00 0.00 62 1013.1
20260906150955 33 274 0.0 0.0 0.00 0.00 0.00 59 1013.4
20260906150450 32 205 0.0 0.0 0.00 0.00 0.00 65 1013.2
20260906145949 32 197 0.0 0.0 0.00 0.00 0.00 66 1013.3
20260906145444 32 189 0.0 0.0 0.00 0.00 0.00 67 1013.5
20260906144944 31 166 0.0 0.0 0.00 0.00 0.00 68 1013.2
20260906144439 31 219 0.0 0.0 0.00 0.00 0.00 71 1013.5
20260906143934 31 188 0.0 0.0 0.00 0.00 0.00 69 1013.4
20260906143430 30 187 0.0 0.0 0.00 0.00 0.00 71 1013.4
20260906142926 30 163 0.0 0.0 0.00 0.00 0.00 71 1013.4
20260906142425 31 227 0.0 0.0 0.00 0.00 0.00 69 1013.5
20260906141920 30 221 0.0 0.0 0.00 0.00 0.00 72 1013.2
20260906141420 30 257 0.0 0.0 0.00 0.00 0.00 72 1013.2
20260906140914 30 178 0.0 0.0 0.00 0.00 0.00 70 1013.3
20260906140409 30 133 0.0 0.0 0.00 0.00 0.00 71 1013.5
20260906135907 28 206 0.0 0.0 0.00 0.00 0.00 78 1013.2
20260906135406 28 193 0.0 0.0 0.00 0.00 0.00 77 1013.3
20260906134902 28 192 0.0 0.0 0.00 0.00 0.00 78 1013.3
20260906134357 27 216 0.0 0.0 0.00 0.00 0.00 83 1013.2
20260906133852 27 219 0.0 0.0 0.00 0.00 0.00 82 1013.5
20260906133348 26 215 0.0 0.0 0.00 0.00 0.00 84 1013.3
20260906132843 26 210 0.0 0.0 0.00 0.00 0.00 86 1013.4
20260906132338 26 222 0.0 0.0 0.00 0.00 0.00 86 1013.5
20260906131834 26 217 0.0 0.0 0.00 0.00 0.00 89 1013.3
20260906131329 26 221 0.0 0.0 0.00 0.00 0.00 87 1013.2
20260906130825 25 218 0.0 0.0 0.00 0.00 0.00 88 1013.3
20260906130324 25 196 0.0 0.0 0.00 0.00 0.00 90 1013.4
20260906125823 25 200 0.0 0.0 0.00 0.00 0.00 92 1013.5
20260906125321 24 178 0.0 0.0 0.00 0.00 0.00 93 1013.5
20260906124816 24 174 0.0 0.0 0.00 0.00 0.00 94 1013.5
20260906124312 23 236 0.0 0.0 0.00 0.00 0.00 95 1013.3
20260906123811 23 235 0.0 0.0 0.00 0.00 0.00 96 1013.4
20260906123306 23 230 0.0 0.0 0.00 0.00 0.00 97 1013.5
20260906122806 23 233 0.0 0.0 0.00 0.00 0.00 97 1013.4
20260906122301 22 234 0.0 0.0 0.00 0.00 0.00 98 1013.3
20260906121757 22 233 0.0 0.0 0.00 0.00 0.00 98 1013.4
20260906121253 22 229 0.0 0.0 0.00 0.00 0.00 99 1013.3
20260906120749 22 232 0.0 0.0 0.00 0.00 0.00 99 1013.1
20260906120246 22 234 0.0 0.0 0.00 0.00 0.00 99 1013.2
20260906115741 21 237 0.0 0.0 0.00 0.00 0.00 99 1013.2
20260906115236 21 177 0.0 0.0 0.00 0.00 0.00 99 1013.1
20260906114735 21 177 0.0 0.0 0.00 0.00 0.00 99 1013.3
20260906114231 21 177 0.0 0.0 0.00 0.00 0.00 99 1013.1
20260906113726 21 176 0.0 0.0 0.00 0.00 0.00 99 1012.9
20260906113225 21 181 0.0 0.0 0.00 0.00 0.00 99 1012.9
20260906112724 21 182 0.0 0.0 0.00 0.00 0.00 99 1012.7
20260906112222 21 195 0.0 0.0 0.00 0.00 0.00 99 1012.6
20260906111721 21 194 0.0 0.0 0.00 0.00 0.00 99 1012.5
20260906111215 21 229 0.0 0.0 0.00 0.00 0.00 99 1012.7
20260906110710 21 180 0.0 0.0 0.00 0.00 0.00 99 1012.6
20260906110201 21 180 0.0 0.0 0.00 0.00 0.00 99 1012.5
20260906105700 21 180 0.0 0.0 0.00 0.00 0.00 99 1012.3
20260906105156 21 181 0.0 0.0 0.00 0.00 0.00 99 1012.4
20260906104655 21 180 0.0 0.0 0.00 0.00 0.00 99 1012.4
20260906104154 21 190 0.0 0.0 0.00 0.00 0.00 99 1012.4
20260906103652 21 190 0.0 0.0 0.00 0.00 0.00 99 1012.2
20260906103148 21 190 0.0 0.0 0.00 0.00 0.00 99 1012.3
20260906102643 21 191 0.0 0.0 0.00 0.00 0.00 99 1012.4
20260906102143 21 209 0.0 0.0 0.00 0.00 0.00 99 1012.5
20260906101643 21 219 0.0 0.0 0.00 0.00 0.00 99 1012.4
20260906101143 21 219 0.0 0.0 0.00 0.00 0.00 99 1012.1
20260906100639 22 219 0.0 0.0 0.00 0.00 0.00 99 1012.2
20260906100133 22 183 0.0 0.0 0.00 0.00 0.00 99 1012.3
20260906095628 22 183 0.0 0.0 0.00 0.00 0.00 99 1012.3
20260906095123 22 228 0.0 0.0 0.00 0.00 0.00 99 1012.4
20260906094622 22 230 0.0 0.0 0.00 0.00 0.00 99 1012.2
20260906094118 22 232 0.0 0.0 0.00 0.00 0.00 99 1012.3
20260906093614 22 232 0.0 0.0 0.00 0.00 0.00 99 1012.3
20260906093108 22 232 0.0 0.0 0.00 0.00 0.00 99 1012.2
20260906092604 22 231 0.0 0.0 0.00 0.00 0.00 99 1012.2
20260906092059 22 231 0.0 0.0 0.00 0.00 0.00 99 1012.2
20260906091554 22 231 0.0 0.0 0.00 0.00 0.00 99 1012.1
20260906091051 22 231 0.0 0.0 0.00 0.00 0.00 98 1012.0
20260906090551 22 230 0.0 0.0 0.00 0.00 0.00 98 1012.0
20260906090046 22 229 0.0 0.0 0.00 0.00 0.00 98 1011.8
20260906085544 22 229 0.0 0.0 0.00 0.00 0.00 98 1011.9
20260906085044 22 218 0.0 0.0 0.00 0.00 0.00 98 1011.9
20260906084539 22 196 0.0 0.0 0.00 0.00 0.00 98 1012.0
20260906084037 22 196 0.0 0.0 0.00 0.00 0.00 98 1011.9
20260906083534 22 196 0.0 0.0 0.00 0.00 0.00 98 1012.0
20260906083033 22 196 0.0 0.0 0.00 0.00 0.00 98 1012.0
20260906082528 22 215 0.0 0.0 0.00 0.00 0.00 98 1012.0
20260906082024 22 215 0.0 0.0 0.00 0.00 0.00 98 1012.0
20260906081520 22 215 0.0 0.0 0.00 0.00 0.00 97 1011.8
20260906081015 22 215 0.0 0.0 0.00 0.00 0.00 97 1011.9
20260906080512 22 215 0.0 0.0 0.00 0.00 0.00 97 1011.9
20260906080008 22 215 0.0 0.0 0.00 0.00 0.00 97 1011.7
20260906075502 22 204 0.0 0.0 0.00 0.00 0.00 97 1011.6
20260906074956 22 206 0.0 0.0 0.00 0.00 0.00 97 1011.7
20260906074451 22 207 0.0 0.0 0.00 0.00 0.00 97 1011.6
20260906073949 22 222 0.0 0.0 0.00 0.00 0.00 97 1011.6
20260906073444 22 222 0.0 0.0 0.00 0.00 0.00 97 1011.8
20260906072941 22 222 0.0 0.0 0.00 0.00 0.00 97 1011.9
20260906072436 22 225 0.0 0.0 0.00 0.00 0.00 96 1011.9
20260906071932 22 225 0.0 0.0 0.00 0.00 0.00 96 1011.8
20260906071427 22 225 0.0 0.0 0.00 0.00 0.00 96 1011.7
20260906070923 23 197 0.0 0.0 0.00 0.00 0.00 96 1011.8
20260906070419 23 234 0.0 0.0 0.00 0.00 0.00 96 1011.8
20260906065915 23 232 0.0 0.0 0.00 0.00 0.00 96 1011.8
20260906065409 23 225 0.0 0.0 0.00 0.00 0.00 95 1012.1
20260906064905 23 237 0.0 0.0 0.00 0.00 0.00 95 1011.7
20260906064401 23 226 0.0 0.0 0.00 0.00 0.00 95 1011.9
20260906063900 23 225 0.0 0.0 0.00 0.00 0.00 95 1011.6
20260906063356 23 225 0.0 0.0 0.00 0.00 0.00 94 1011.8
20260906062851 23 225 0.0 0.0 0.00 0.00 0.00 94 1011.9
20260906062350 23 220 0.0 0.0 0.00 0.00 0.00 94 1012.0
20260906061845 23 230 0.0 0.0 0.00 0.00 0.00 94 1011.9
20260906061336 23 232 0.0 0.0 0.00 0.00 0.00 94 1012.1
20260906060830 23 233 0.0 0.0 0.00 0.00 0.00 94 1012.0
20260906060329 23 230 0.0 0.0 0.00 0.00 0.00 94 1012.2
20260906055824 23 224 0.0 0.0 0.00 0.00 0.00 94 1012.1
20260906055319 23 173 0.0 0.0 0.00 0.00 0.00 93 1012.2
20260906054815 23 173 0.0 0.0 0.00 0.00 0.00 93 1012.1
20260906054310 23 170 0.0 0.0 0.00 0.00 0.00 94 1012.3
20260906053806 23 176 0.0 0.0 0.00 0.00 0.00 94 1012.3
20260906053301 23 191 0.0 0.0 0.00 0.00 0.00 93 1012.2
20260906052756 23 190 0.0 0.0 0.00 0.00 0.00 93 1012.4
20260906052253 23 194 0.0 0.0 0.00 0.00 0.00 94 1012.7
20260906051750 23 219 0.0 0.0 0.00 0.00 0.00 94 1012.6
20260906051249 23 230 0.0 0.0 0.00 0.00 0.00 94 1012.5
20260906050744 23 230 0.0 0.0 0.00 0.00 0.00 94 1012.6
20260906050239 23 220 0.0 0.0 0.00 0.00 0.00 93 1012.9
20260906045738 23 221 0.0 0.0 0.00 0.00 0.00 93 1013.0
20260906045233 23 235 0.0 0.0 0.00 0.00 0.00 93 1012.9
20260906044729 23 235 0.0 0.0 0.00 0.00 0.00 93 1013.0
20260906044224 23 190 0.0 0.0 0.00 0.00 0.00 92 1012.7
20260906043720 23 226 0.0 0.0 0.00 0.00 0.00 92 1012.7
20260906043216 23 239 0.0 0.0 0.00 0.00 0.00 92 1012.7
20260906042715 24 226 0.0 0.0 0.00 0.00 0.00 91 1012.7
20260906042214 24 225 0.0 0.0 0.00 0.00 0.00 90 1012.9
20260906041710 24 225 0.0 0.0 0.00 0.00 0.00 90 1012.9
20260906041205 24 203 0.0 0.0 0.00 0.00 0.00 91 1012.8
20260906040701 24 236 0.0 0.0 0.00 0.00 0.00 91 1013.0
20260906040156 24 237 0.0 0.0 0.00 0.00 0.00 90 1013.0
20260906035651 25 235 0.0 0.0 0.00 0.00 0.00 90 1013.0
20260906035147 25 222 0.0 0.0 0.00 0.00 0.00 88 1012.9
20260906034641 25 225 0.0 0.0 0.00 0.00 0.00 88 1013.1
20260906034136 25 177 0.0 0.0 0.00 0.00 0.00 88 1013.0
20260906033632 25 215 0.0 0.0 0.00 0.00 0.00 88 1013.1
20260906033126 25 219 0.0 0.0 0.00 0.00 0.00 88 1013.0
20260906032623 25 192 0.0 0.0 0.00 0.00 0.00 88 1013.2
20260906032122 25 192 0.0 0.0 0.00 0.00 0.00 88 1013.2
20260906031618 25 192 0.0 0.0 0.00 0.00 0.00 88 1013.1
20260906031113 25 191 0.0 0.0 0.00 0.00 0.00 87 1013.2
20260906030612 25 209 0.0 0.0 0.00 0.00 0.00 87 1013.5
20260906030108 25 172 0.0 0.0 0.00 0.00 0.00 88 1013.5
20260906025607 25 174 0.0 0.0 0.00 0.00 0.00 87 1013.3
20260906025106 25 174 0.0 0.0 0.00 0.00 0.00 87 1013.3
20260906024601 25 172 0.0 0.0 0.00 0.00 0.00 87 1013.5
20260906024055 25 176 0.0 0.0 0.00 0.00 0.00 87 1013.2
20260906023552 25 175 0.0 0.0 0.00 0.00 0.00 87 1013.4
20260906023046 25 230 0.0 0.0 0.00 0.00 0.00 87 1013.5
20260906022541 25 231 0.0 0.0 0.00 0.00 0.00 87 1013.6
20260906022037 25 231 0.0 0.0 0.00 0.00 0.00 86 1013.4
20260906021532 25 227 0.0 0.0 0.00 0.00 0.00 86 1013.6
20260906021031 25 219 0.0 0.0 0.00 0.00 0.00 86 1013.7
20260906020531 25 219 0.0 0.0 0.00 0.00 0.00 86 1013.5
20260906020031 25 188 0.0 0.0 0.00 0.00 0.00 86 1013.7
20260906015529 25 235 0.0 0.0 0.00 0.00 0.00 86 1013.7
20260906015024 25 237 0.0 0.0 0.00 0.00 0.00 86 1013.5
20260906014519 25 235 0.0 0.0 0.00 0.00 0.00 85 1013.6
20260906014015 25 204 0.0 0.0 0.00 0.00 0.00 84 1013.4
20260906013510 25 178 0.0 0.0 0.00 0.00 0.00 84 1012.9
20260906013006 25 250 0.0 0.0 0.00 0.00 0.00 84 1012.8
20260906012501 26 241 0.0 0.0 0.00 0.00 0.00 83 1012.7
20260906012000 26 217 0.0 0.0 0.00 0.00 0.00 83 1012.5
20260906011456 26 228 0.0 0.0 0.00 0.00 0.00 82 1012.4
20260906010950 26 249 0.0 0.0 0.00 0.00 0.00 82 1012.3
20260906010446 26 251 0.0 0.0 0.00 0.00 0.00 82 1012.3
20260906005943 26 220 0.0 0.0 0.00 0.00 0.00 81 1012.4
20260906005442 26 194 0.0 0.0 0.00 0.00 0.00 80 1012.0
20260906004940 26 178 0.0 0.0 0.00 0.00 0.00 80 1011.9
20260906004434 26 201 0.0 0.0 0.00 0.00 0.00 80 1011.8
20260906003930 26 177 0.0 0.0 0.00 0.00 0.00 80 1011.7
20260906003425 27 208 0.0 0.0 0.00 0.00 0.00 79 1011.7
20260906002920 27 182 0.0 0.0 0.00 0.00 0.00 78 1011.7
20260906002420 27 191 0.0 0.0 0.00 0.00 0.00 78 1011.4
20260906001915 27 191 0.0 0.0 0.00 0.00 0.00 77 1011.8
20260906001411 27 201 0.0 0.0 0.00 0.00 0.00 77 1011.8
20260906000910 27 233 0.0 0.0 0.00 0.00 0.00 76 1011.9
20260906000406 27 214 0.0 0.0 0.00 0.00 0.00 75 1012.1
20260905235855 27 183 0.0 0.0 0.00 0.00 0.00 74 1012.2
20260905235349 27 231 0.0 0.0 0.00 0.00 0.00 74 1011.9
20260905234844 27 223 0.0 0.0 0.00 0.00 0.00 74 1012.2
20260905234339 27 235 0.0 0.0 0.00 0.00 0.00 74 1012.2
20260905233835 27 80 0.0 0.0 0.00 0.00 0.00 75 1012.2
20260905233329 27 185 0.0 0.0 0.00 0.00 0.00 76 1012.6
20260905232828 27 119 0.0 0.0 0.00 0.00 0.00 77 1012.0
20260905232325 27 212 0.0 0.0 0.00 0.00 0.00 79 1011.9
20260905231820 27 215 0.0 0.0 0.00 0.00 0.00 79 1012.1
20260905231315 27 210 0.0 0.0 0.00 0.00 0.00 78 1011.8
20260905230812 28 198 0.0 0.0 0.00 0.00 0.00 77 1011.8
20260905230309 28 228 0.0 0.0 0.00 0.00 0.00 74 1011.6
20260905225809 28 172 0.0 0.0 0.00 0.00 0.00 73 1011.9
20260905225306 28 275 0.0 0.0 0.00 0.00 0.00 71 1011.7
20260905224804 30 26 0.0 0.0 0.00 0.00 0.00 69 1012.0
20260905224259 31 308 0.0 0.0 0.00 0.00 0.00 64 1012.2
20260905223755 31 11 0.0 0.0 0.00 0.00 0.00 61 1012.1
20260905223252 33 128 0.0 0.0 0.00 0.00 0.00 58 1011.8
20260905222747 35 194 0.0 0.0 0.00 0.00 0.00 61 1011.5
20260905222246 35 253 0.0 0.0 0.00 0.00 0.00 60 1011.1
20260905221742 35 264 0.0 0.0 0.00 0.00 0.00 57 1010.7
20260905221239 35 235 0.0 0.0 0.00 0.00 0.00 59 1010.9
20260905220734 35 229 0.0 0.0 0.00 0.00 0.00 59 1010.7
20260905220230 35 247 0.0 0.0 0.00 0.00 0.00 60 1010.8
20260905215730 35 220 0.0 0.0 0.00 0.00 0.00 60 1010.7
20260905215226 35 242 0.0 0.0 0.00 0.00 0.00 60 1010.5
20260905214721 35 242 0.0 0.0 0.00 0.00 0.00 58 1010.9
20260905214217 36 239 0.0 0.0 0.00 0.00 0.00 59 1010.8
20260905213712 36 232 0.0 0.0 0.00 0.00 0.00 57 1010.3
20260905213208 37 240 0.0 0.0 0.00 0.00 0.00 53 1010.6
20260905212703 37 227 0.0 0.0 0.00 0.00 0.00 51 1010.5
20260905212202 37 234 0.0 0.0 0.00 0.00 0.00 50 1010.5
20260905211656 37 240 0.0 0.0 0.00 0.00 0.00 51 1010.7
20260905211152 37 56 0.0 0.0 0.00 0.00 0.00 52 1010.6
20260905210649 37 218 0.0 0.0 0.00 0.00 0.00 51 1010.8
20260905210148 37 236 0.0 0.0 0.00 0.00 0.00 52 1010.6
20260905205647 37 224 0.0 0.0 0.00 0.00 0.00 50 1010.9
20260905205147 38 245 0.0 0.0 0.00 0.00 0.00 50 1011.0
20260905204647 37 256 0.0 0.0 0.00 0.00 0.00 51 1010.8
20260905204142 38 247 0.0 0.0 0.00 0.00 0.00 52 1010.6
20260905203637 37 234 0.0 0.0 0.00 0.00 0.00 52 1010.6
20260905203132 38 260 0.0 0.0 0.00 0.00 0.00 50 1010.7
20260905202628 38 290 0.0 0.0 0.00 0.00 0.00 49 1010.6
20260905202123 38 233 0.0 0.0 0.00 0.00 0.00 51 1010.7
20260905201619 38 237 0.0 0.0 0.00 0.00 0.00 49 1010.8
20260905201118 38 225 0.0 0.0 0.00 0.00 0.00 51 1011.1
20260905200614 38 187 0.0 0.0 0.00 0.00 0.00 49 1010.9
20260905200109 39 222 0.0 0.0 0.00 0.00 0.00 49 1011.1
20260905195607 40 232 0.0 0.0 0.00 0.00 0.00 48 1010.9
20260905195103 38 201 0.0 0.0 0.00 0.00 0.00 50 1011.0
20260905194603 38 209 0.0 0.0 0.00 0.00 0.00 53 1011.2
20260905194102 38 233 0.0 0.0 0.00 0.00 0.00 51 1011.1
20260905193557 38 259 0.0 0.0 0.00 0.00 0.00 51 1011.0